This is the latest recevied weather packets stored in our database for station/object OM6ACB-6. If no packets are shown the sender has not sent any weather packets the latest 10 day(s).
| Time | Temp. | Humidity | Pressure | Rain* | Wind** | Luminosity | Snow |
|---|---|---|---|---|---|---|---|
| 1788664597 | 9.44° C | 28% | 1024.7 hPa | 0 mm | - | - | - |
| 1788663996 | 9.44° C | 28% | 1024.5 hPa | 0 mm | - | - | - |
| 1788663396 | 10° C | 28% | 1024.6 hPa | 0 mm | - | - | - |
| 1788662796 | 10° C | 28% | 1024.6 hPa | 0 mm | - | - | - |
| 1788662196 | 10.56° C | 27% | 1024.7 hPa | 0 mm | - | - | - |
| 1788661595 | 11.67° C | 27% | 1024.9 hPa | 0 mm | - | - | - |
| 1788660995 | 11.11° C | 27% | 1024.8 hPa | 0 mm | - | - | - |
| 1788660395 | 11.11° C | 27% | 1024.8 hPa | 0 mm | - | - | - |
| 1788659794 | 11.67° C | 27% | 1024.8 hPa | 0 mm | - | - | - |
| 1788659194 | 11.67° C | 27% | 1024.7 hPa | 0 mm | - | - | - |
| 1788658594 | 12.22° C | 26% | 1024.7 hPa | 0 mm | - | - | - |
| 1788657993 | 12.22° C | 26% | 1024.7 hPa | 0 mm | - | - | - |
| 1788657393 | 12.78° C | 26% | 1024.8 hPa | 0 mm | - | - | - |
| 1788656793 | 13.33° C | 26% | 1024.8 hPa | 0 mm | - | - | - |
| 1788656192 | 13.89° C | 26% | 1025 hPa | 0 mm | - | - | - |
| 1788655592 | 13.89° C | 25% | 1024.8 hPa | 0 mm | - | - | - |
| 1788654992 | 13.89° C | 26% | 1024.5 hPa | 0 mm | - | - | - |
| 1788654392 | 11.67° C | 27% | 1024 hPa | 0 mm | - | - | - |
| 1788653791 | 11.67° C | 27% | 1023.9 hPa | 0 mm | - | - | - |
| 1788653191 | 11.67° C | 27% | 1023.9 hPa | 0 mm | - | - | - |
| 1788652591 | 12.22° C | 27% | 1023.9 hPa | 0 mm | - | - | - |
| 1788651991 | 13.33° C | 26% | 1023.8 hPa | 0 mm | - | - | - |
| 1788651390 | 12.22° C | 26% | 1023.9 hPa | 0 mm | - | - | - |
| 1788650790 | 12.78° C | 26% | 1024 hPa | 0 mm | - | - | - |
| 1788650190 | 13.33° C | 26% | 1024.1 hPa | 0 mm | - | - | - |
* Rain latest hour (hover to see other rain measurements)
** Current wind speed in m/s (hover to see current wind gust speed)